Home   Weather   Nagano   Past weeks

Flag for Japan Past Weather in Nagano, Japan — Yesterday and Last 2 Weeks

Now
71 °F

Overcast.


Feels Like: 67 °F
Forecast: 66 / 84 °F
Wind: 1 mph from Northwest

Location: Nagano

Current Time: Aug 20, 2017 at 4:10:37 am

Latest Report: Aug 20, 2017 at 3:00 am


Visibility: 13 mi

Pressure: 29.88 "Hg

Humidity: 94%

Dew Point: 70 °F

Location of NaganoLocation

Past Weather in Nagano — Graph

°F

Nagano Temperature Yesterday

Maximum temperature yesterday: 86 °F (at 2:00 pm)
Minimum temperature yesterday: 72 °F (at 5:00 am)
Average temperature yesterday: 77 °F

High & Low Weather Summary for the Past Weeks

 TemperatureHumidityPressure
High94 °F (Aug 6, 1:00 pm)100% (Aug 11, 8:00 pm)29.91 "Hg (Aug 11, 8:00 pm)
Low70 °F (Aug 15, 6:00 am)50% (Aug 5, 1:00 pm)29.12 "Hg (Aug 8, 4:00 am)
Average78 °F79%29.63 "Hg
* Reported Aug 5 2:00 am — Aug 20 2:00 am, Nagano. Weather by CustomWeather, © 2017

Note: Actual official high and low records may vary slightly from our data, if they occured in-between our weather recording intervals... More about our weather records

Advertising

Nagano Weather History for the Previous 24 Hours

Scroll right to see more
 ConditionsComfort  
Time TempWeatherWind HumidityBarometerVisibility
2:00 am
Sun, Aug 20
72 °FMild.1 mph90%29.88 "HgN/A
1:00 am73 °FMild.1 mph86%29.89 "HgN/A
12:00 am74 °FMild.1 mph87%29.91 "HgN/A
11:00 pm
Sat, Aug 19
74 °FMild.3 mph85%29.91 "HgN/A
10:00 pm74 °FMild.2 mph84%29.90 "HgN/A
9:00 pm75 °FOvercast.7 mph80%29.89 "Hg12 mi
8:00 pm75 °FMild.5 mph82%29.88 "HgN/A
7:00 pm76 °FMild.10 mph81%29.86 "HgN/A
6:00 pm77 °FMild.9 mph79%29.83 "HgN/A
5:00 pm78 °FWarm.14 mph78%29.80 "HgN/A
4:00 pm82 °FWarm.6 mph70%29.78 "HgN/A
3:00 pm82 °FScattered clouds.9 mph70%29.78 "Hg19 mi
2:00 pm86 °FWarm.8 mph63%29.77 "HgN/A
1:00 pm84 °FWarm.8 mph65%29.78 "HgN/A
12:00 pm83 °FWarm.12 mph67%29.81 "HgN/A
11:00 am80 °FWarm.6 mph76%29.84 "HgN/A
10:00 am80 °FWarm.3 mph74%29.84 "HgN/A
9:00 am76 °FFog.1 mph87%29.86 "Hg5 mi
8:00 am74 °FMild.No wind93%29.87 "HgN/A
7:00 am73 °FMild.No wind95%29.87 "HgN/A
6:00 am72 °FMild.1 mph96%29.87 "HgN/A
5:00 am72 °FMild.3 mph98%29.85 "HgN/A
4:00 am73 °FMild.No wind97%29.83 "HgN/A
Weather by CustomWeather, © 2017

See weather overviewHow to use our weather pages